Total_Precipitation_Accumulation
0.07 0.05 0.04 0.05 0.04 0.04 0.03 0.02 0.02 0.02 0.02 0.02 0.02 0.02 0.02 0.02 0.00 0.00 0.00 0.00 0.00 0.00 0.00 0.00 0.00 0.00 0.00 0.00 0.00 0.00 0.00 0.00 0.00 0.01 0.15 0.23 0.09 0.30 0.28 0.25 0.39 0.40 0.67 0.81 0.90
0.14 0.11 0.09 0.08 0.06 0.04 0.03 0.02 0.02 0.02 0.03 0.03 0.01 0.02 0.02 0.02 0.00 0.00 0.00 0.00 0.00 0.00 0.00 0.00 0.00 0.00 0.00 0.00 0.00 0.00 0.00 0.00 0.00 0.06 0.24 0.13 0.06 0.39 0.31 0.44 0.71 0.43 0.73 0.74 0.49
0.15 0.11 0.08 0.07 0.06 0.05 0.04 0.04 0.03 0.02 0.02 0.02 0.01 0.02 0.02 0.01 0.00 0.00 0.00 0.00 0.00 0.00 0.00 0.00 0.00 0.00 0.00 0.00 0.00 0.00 0.00 0.00 0.02 0.11 0.04 0.03 0.08 0.21 0.42 0.51 0.57 1.15 0.48 0.42 0.51
0.07 0.06 0.06 0.06 0.05 0.04 0.03 0.03 0.03 0.02 0.02 0.01 0.01 0.02 0.02 0.00 0.00 0.00 0.00 0.00 0.00 0.00 0.00 0.00 0.00 0.00 0.00 0.00 0.00 0.00 0.00 0.00 0.01 0.01 0.01 0.00 0.04 0.29 0.59 0.81 0.31 0.35 0.43 0.47 0.75
0.09 0.07 0.06 0.06 0.06 0.04 0.04 0.04 0.04 0.03 0.02 0.01 0.02 0.02 0.01 0.00 0.00 0.00 0.00 0.00 0.00 0.00 0.00 0.00 0.00 0.00 0.00 0.00 0.00 0.00 0.00 0.00 0.01 0.04 0.03 0.00 0.07 0.22 0.73 0.42 0.15 0.19 0.40 0.55 0.56
0.10 0.09 0.07 0.08 0.08 0.07 0.06 0.05 0.03 0.03 0.03 0.02 0.02 0.04 0.01 0.01 0.00 0.00 0.00 0.00 0.00 0.00 0.00 0.00 0.00 0.00 0.00 0.00 0.00 0.00 0.00 0.00 0.00 0.01 0.01 0.02 0.07 0.16 0.57 0.42 0.20 0.14 0.33 0.56 0.59
0.14 0.10 0.08 0.09 0.10 0.10 0.09 0.07 0.05 0.04 0.04 0.02 0.03 0.05 0.03 0.00 0.00 0.00 0.00 0.00 0.00 0.00 0.00 0.00 0.00 0.00 0.00 0.00 0.00 0.00 0.00 0.02 0.03 0.01 0.00 0.05 0.20 0.36 0.17 0.20 0.17 0.11 0.08 0.36 0.88
0.27 0.20 0.15 0.14 0.15 0.14 0.13 0.09 0.08 0.08 0.06 0.04 0.06 0.06 0.02 0.00 0.00 0.00 0.00 0.00 0.00 0.00 0.00 0.00 0.00 0.00 0.00 0.00 0.00 0.00 0.00 0.01 0.04 0.03 0.02 0.15 0.48 0.07 0.04 0.08 0.11 0.10 0.08 0.08 0.10
0.38 0.27 0.20 0.17 0.18 0.18 0.16 0.13 0.13 0.14 0.12 0.08 0.05 0.05 0.01 0.00 0.00 0.00 0.00 0.00 0.00 0.00 0.00 0.00 0.00 0.00 0.00 0.00 0.00 0.00 0.00 0.00 0.01 0.01 0.01 0.05 0.34 0.14 0.06 0.11 0.09 0.06 0.06 0.04 0.03
0.62 0.48 0.36 0.28 0.26 0.28 0.26 0.20 0.24 0.31 0.20 0.17 0.13 0.08 0.01 0.00 0.00 0.00 0.00 0.00 0.00 0.00 0.00 0.00 0.00 0.00 0.00 0.00 0.01 0.00 0.00 0.00 0.02 0.02 0.01 0.01 0.03 0.26 0.14 0.06 0.28 0.09 0.05 0.06 0.01
0.69 0.47 0.35 0.36 0.36 0.35 0.39 0.62 0.64 0.57 0.31 0.13 0.06 0.02 0.00 0.00 0.00 0.00 0.00 0.00 0.00 0.00 0.01 0.00 0.00 0.00 0.00 0.00 0.00 0.00 0.00 0.00 0.00 0.01 0.00 0.00 0.01 0.02 0.02 0.05 0.04 0.06 0.08 0.03 0.01
1.15 0.87 0.61 0.51 0.53 0.48 0.48 0.49 0.22 0.18 0.19 0.04 0.01 0.01 0.00 0.00 0.00 0.00 0.00 0.00 0.00 0.01 0.02 0.02 0.01 0.00 0.00 0.00 0.00 0.00 0.00 0.00 0.00 0.00 0.00 0.00 0.00 0.00 0.05 0.02 0.01 0.01 0.12 0.04 0.02
1.18 1.09 1.00 0.93 0.95 0.94 0.53 0.26 0.09 0.19 0.28 0.06 0.02 0.01 0.00 0.00 0.00 0.00 0.00 0.00 0.00 0.03 0.03 0.02 0.01 0.00 0.01 0.00 0.00 0.00 0.00 0.00 0.00 0.00 0.00 0.00 0.00 0.00 0.02 0.05 0.08 0.04 0.03 0.01 0.01
1.52 1.32 1.41 1.79 2.06 0.72 0.67 0.25 0.23 0.57 0.97 0.11 0.03 0.02 0.00 0.01 0.02 0.01 0.00 0.00 0.00 0.02 0.08 0.07 0.00 0.02 0.00 0.00 0.01 0.00 0.00 0.00 0.00 0.00 0.00 0.00 0.01 0.03 0.05 0.04 0.02 0.08 0.06 0.03 0.03
2.55 2.01 1.69 1.89 1.49 0.70 0.46 0.49 0.61 1.61 2.10 0.13 0.00 0.00 0.00 0.05 0.05 0.00 0.00 0.00 0.00 0.01 0.11 0.10 0.03 0.04 0.02 0.01 0.01 0.02 0.00 0.00 0.00 0.00 0.06 0.03 0.02 0.04 0.07 0.05 0.01 0.08 0.15 0.12 0.05
3.65 3.24 2.80 2.56 1.71 0.65 0.49 1.10 2.56 4.27 2.36 0.05 0.02 0.03 0.04 0.03 0.00 0.01 0.01 0.00 0.01 0.02 0.02 0.02 0.02 0.07 0.06 0.01 0.00 0.00 0.02 0.00 0.00 0.04 0.15 0.03 0.04 0.13 0.16 0.13 0.09 0.17 0.17 0.16 0.09
3.67 4.59 4.01 2.52 1.77 1.06 1.52 3.45 5.94 4.96 0.61 0.04 0.07 0.07 0.07 0.07 0.04 0.05 0.10 0.04 0.03 0.10 0.04 0.01 0.04 0.06 0.11 0.16 0.03 0.03 0.14 0.27 0.25 0.17 0.12 0.12 0.22 0.48 0.22 0.22 0.35 0.35 0.15 0.09 0.07
3.56 4.68 5.37 3.50 1.81 1.63 3.50 6.47 6.85 1.85 0.31 0.03 0.02 0.11 0.17 0.11 0.10 0.09 0.07 0.07 0.04 0.06 0.14 0.11 0.16 0.18 0.23 0.41 0.41 0.08 0.26 0.61 0.75 0.30 0.21 0.37 0.64 0.69 0.54 0.44 0.48 0.34 0.25 0.22 0.26
5.51 6.23 6.81 6.01 3.28 3.09 5.59 8.56 4.22 0.72 0.16 0.12 0.07 0.21 0.21 0.24 0.20 0.17 0.12 0.11 0.06 0.06 0.19 0.24 0.22 0.12 0.22 0.29 0.30 0.30 0.32 0.25 0.96 0.46 0.35 0.40 0.59 0.96 1.11 0.83 1.24 1.35 0.82 0.70 0.61
7.13 7.90 6.54 5.57 4.75 5.30 8.50 7.14 2.07 0.27 0.09 0.07 0.20 0.28 0.23 0.21 0.40 0.48 0.44 0.36 0.11 0.06 0.12 0.13 0.29 0.09 0.06 0.15 0.15 0.24 0.30 0.72 1.41 1.38 0.83 0.65 0.52 0.86 0.84 0.83 0.85 0.75 0.58 0.43 0.33
8.09 9.09 6.06 5.83 8.79 11.65 10.88 5.47 1.20 0.16 0.03 0.15 0.22 0.19 0.16 0.25 0.33 0.44 0.72 0.58 0.22 0.23 0.13 0.12 0.31 0.20 0.22 0.48 0.35 0.27 0.50 0.73 0.97 0.86 1.12 1.00 1.26 1.53 1.09 1.14 0.82 0.32 0.26 0.25 0.26
9.47 9.10 4.97 7.07 13.87 13.33 8.35 2.93 0.62 0.08 0.10 0.21 0.26 0.18 0.17 0.20 0.30 0.44 0.40 0.46 0.36 0.36 0.40 0.35 0.37 0.22 0.19 0.35 0.27 0.37 0.56 0.86 1.51 0.97 0.82 1.20 1.72 1.32 1.27 0.76 0.90 0.58 0.38 0.18 0.22
10.05 7.78 5.79 8.26 12.53 8.89 4.52 1.50 0.47 0.26 0.31 0.62 0.45 0.16 0.18 0.29 0.59 0.30 0.28 0.21 0.26 0.53 0.82 0.73 1.05 0.80 0.44 0.49 0.42 0.47 0.55 0.75 1.13 1.66 1.41 1.56 1.53 1.23 1.15 1.24 1.25 0.83 0.50 0.28 0.37
8.46 7.62 8.28 10.38 8.63 4.87 3.20 2.00 1.24 0.59 0.63 0.84 0.72 0.33 0.48 0.50 0.36 0.40 0.34 0.28 0.22 0.30 0.59 1.09 1.22 1.08 0.90 0.95 0.92 0.92 0.52 0.55 1.67 2.74 1.89 0.99 0.80 1.50 1.68 1.98 1.15 0.71 0.76 0.62 0.61
9.29 6.22 4.15 6.88 6.24 3.72 2.60 2.35 1.59 1.38 1.25 1.01 1.27 1.06 1.01 1.07 0.63 0.57 0.36 0.45 0.36 0.54 0.81 1.33 1.72 1.06 0.70 0.33 0.52 0.91 0.69 0.54 1.19 1.57 2.20 1.25 1.20 1.34 1.51 2.00 1.74 1.13 0.98 0.85 0.81
8.44 4.01 2.76 2.30 1.88 2.26 3.03 2.64 1.62 1.45 1.59 1.52 1.51 0.93 0.74 1.29 1.10 0.90 0.59 0.65 0.92 0.70 1.07 1.56 2.04 1.52 1.24 0.77 0.93 0.90 0.58 0.46 0.62 0.94 1.08 0.91 1.24 1.34 0.98 1.14 1.41 1.26 1.21 1.13 0.98
6.81 2.57 3.06 2.61 1.85 2.65 2.71 1.59 1.05 1.13 1.38 0.94 1.09 1.15 1.22 1.37 1.10 0.99 1.02 0.90 1.05 1.02 1.55 1.58 1.75 1.92 1.90 0.96 1.30 2.11 0.82 0.55 0.72 1.14 1.28 1.79 1.63 1.31 0.96 1.14 1.22 1.36 1.20 1.47 1.24